Time,TemperatureF,DewpointF,PressureIn,WindDirection,WindDirectionDegrees,WindSpeedMPH,WindSpeedGustMPH,Humidity,HourlyPrecipIn,Conditions,Clouds,dailyrainin,SoftwareType,DateUTC
2013-07-25 00:14:00,59.2,51.0,29.99,SSE,159,0.0,-999.0,75,-99.99,,,0.00,weatherlink.com 1.10,2013-07-25 04:14:00,
2013-07-25 00:29:00,58.3,51.0,29.99,SSE,159,0.0,-999.0,77,-99.99,,,0.00,weatherlink.com 1.10,2013-07-25 04:29:00,
2013-07-25 00:45:00,57.4,51.0,29.99,SSE,159,0.0,-999.0,78,-99.99,,,0.00,weatherlink.com 1.10,2013-07-25 04:45:00,
2013-07-25 01:00:00,56.4,51.0,29.99,SSE,159,0.0,-999.0,81,-99.99,,,0.00,weatherlink.com 1.10,2013-07-25 05:00:00,
2013-07-25 01:15:00,55.7,51.0,29.99,SSE,159,0.0,-999.0,83,-99.99,,,0.00,weatherlink.com 1.10,2013-07-25 05:15:00,
2013-07-25 01:30:00,55.3,51.0,29.99,SSE,159,0.0,-999.0,84,-99.99,,,0.00,weatherlink.com 1.10,2013-07-25 05:30:00,
2013-07-25 01:45:00,55.4,50.0,29.99,SSE,159,0.0,-999.0,82,-99.99,,,0.00,weatherlink.com 1.10,2013-07-25 05:45:00,
2013-07-25 02:00:00,55.7,50.0,29.99,SSE,159,0.0,-999.0,82,-99.99,,,0.00,weatherlink.com 1.10,2013-07-25 06:00:00,
2013-07-25 02:15:00,55.7,50.0,29.99,SSE,159,0.0,-999.0,81,-99.99,,,0.00,weatherlink.com 1.10,2013-07-25 06:15:00,
2013-07-25 02:30:00,55.0,50.0,29.99,SSE,159,0.0,-999.0,82,-99.99,,,0.00,weatherlink.com 1.10,2013-07-25 06:30:00,
2013-07-25 02:45:00,54.3,50.0,29.98,SSE,159,0.0,-999.0,84,-99.99,,,0.00,weatherlink.com 1.10,2013-07-25 06:45:00,
2013-07-25 03:00:00,53.7,49.0,29.98,SSE,159,0.0,-999.0,84,-99.99,,,0.00,weatherlink.com 1.10,2013-07-25 07:00:00,
2013-07-25 03:15:00,53.0,49.0,29.97,SSE,159,0.0,-999.0,86,-99.99,,,0.00,weatherlink.com 1.10,2013-07-25 07:15:00,
2013-07-25 03:30:00,52.6,49.0,29.97,SSE,159,0.0,-999.0,86,-99.99,,,0.00,weatherlink.com 1.10,2013-07-25 07:30:00,
2013-07-25 03:45:00,51.9,48.0,29.98,SSE,159,0.0,-999.0,87,-99.99,,,0.00,weatherlink.com 1.10,2013-07-25 07:45:00,
2013-07-25 04:00:00,51.6,48.0,29.98,SSE,159,0.0,-999.0,88,-99.99,,,0.00,weatherlink.com 1.10,2013-07-25 08:00:00,
2013-07-25 04:15:00,51.1,48.0,29.98,SSE,159,0.0,-999.0,89,-99.99,,,0.00,weatherlink.com 1.10,2013-07-25 08:15:00,
2013-07-25 04:30:00,50.7,48.0,29.98,SSE,159,0.0,-999.0,90,-99.99,,,0.00,weatherlink.com 1.10,2013-07-25 08:30:00,
2013-07-25 04:45:00,50.4,48.0,29.98,SSE,159,0.0,-999.0,90,-99.99,,,0.00,weatherlink.com 1.10,2013-07-25 08:45:00,
2013-07-25 05:00:00,50.1,47.0,29.99,SSE,159,0.0,-999.0,90,-99.99,,,0.00,weatherlink.com 1.10,2013-07-25 09:00:00,
2013-07-25 05:15:00,49.7,47.0,29.99,SSE,159,0.0,-999.0,91,-99.99,,,0.00,weatherlink.com 1.10,2013-07-25 09:15:00,
2013-07-25 05:30:00,49.5,47.0,29.99,SSE,159,0.0,-999.0,91,-99.99,,,0.00,weatherlink.com 1.10,2013-07-25 09:30:00,
2013-07-25 05:45:00,49.2,47.0,29.99,SSE,159,0.0,-999.0,91,-99.99,,,0.00,weatherlink.com 1.10,2013-07-25 09:45:00,
2013-07-25 06:00:00,49.0,47.0,29.99,SSE,159,0.0,-999.0,92,-99.99,,,0.00,weatherlink.com 1.10,2013-07-25 10:00:00,
2013-07-25 06:15:00,48.8,47.0,30.00,SSE,159,0.0,-999.0,92,-99.99,,,0.00,weatherlink.com 1.10,2013-07-25 10:15:00,
2013-07-25 06:30:00,48.8,47.0,30.00,SSE,159,0.0,-999.0,92,-99.99,,,0.00,weatherlink.com 1.10,2013-07-25 10:30:00,
2013-07-25 06:45:00,48.9,47.0,30.00,SSE,159,0.0,-999.0,92,-99.99,,,0.00,weatherlink.com 1.10,2013-07-25 10:45:00,
2013-07-25 07:00:00,49.5,48.0,30.01,SSE,159,0.0,-999.0,93,-99.99,,,0.00,weatherlink.com 1.10,2013-07-25 11:00:00,
2013-07-25 07:15:00,50.1,48.0,30.03,SSE,159,0.0,-999.0,93,-99.99,,,0.00,weatherlink.com 1.10,2013-07-25 11:15:00,
2013-07-25 07:30:00,51.5,50.0,30.02,SSE,159,0.0,-999.0,94,-99.99,,,0.00,weatherlink.com 1.10,2013-07-25 11:30:00,
2013-07-25 07:45:00,52.5,51.0,30.02,SSE,159,0.0,-999.0,94,-99.99,,,0.00,weatherlink.com 1.10,2013-07-25 11:45:00,
2013-07-25 08:00:00,53.8,52.0,30.02,SSE,159,0.0,-999.0,94,-99.99,,,0.00,weatherlink.com 1.10,2013-07-25 12:00:00,
2013-07-25 08:15:00,55.1,53.0,30.03,SSE,163,1.0,-999.0,93,-99.99,,,0.00,weatherlink.com 1.10,2013-07-25 12:15:00,
2013-07-25 08:30:00,56.1,53.0,30.02,SSE,163,0.0,-999.0,90,-99.99,,,0.00,weatherlink.com 1.10,2013-07-25 12:30:00,
2013-07-25 08:45:00,57.2,53.0,30.03,SSE,163,0.0,-999.0,87,-99.99,,,0.00,weatherlink.com 1.10,2013-07-25 12:45:00,
2013-07-25 09:00:00,58.6,53.0,30.04,NE,54,0.0,-999.0,81,-99.99,,,0.00,weatherlink.com 1.10,2013-07-25 13:00:00,
2013-07-25 09:15:00,59.8,54.0,30.04,ENE,69,0.0,-999.0,80,-99.99,,,0.00,weatherlink.com 1.10,2013-07-25 13:15:00,
2013-07-25 09:31:00,60.5,53.0,30.04,NE,55,0.0,-999.0,77,-99.99,,,0.00,weatherlink.com 1.10,2013-07-25 13:31:00,
2013-07-25 09:46:00,61.0,53.0,30.04,ENE,71,0.0,-999.0,75,-99.99,,,0.00,weatherlink.com 1.10,2013-07-25 13:46:00,
2013-07-25 10:01:00,61.6,53.0,30.03,NNE,33,3.0,-999.0,74,-99.99,,,0.00,weatherlink.com 1.10,2013-07-25 14:01:00,
2013-07-25 10:16:00,62.3,54.0,30.03,NE,55,0.0,-999.0,75,-99.99,,,0.00,weatherlink.com 1.10,2013-07-25 14:16:00,
2013-07-25 10:31:00,63.0,55.0,30.03,North,360,3.0,-999.0,75,-99.99,,,0.00,weatherlink.com 1.10,2013-07-25 14:31:00,
2013-07-25 10:46:00,64.5,55.0,30.03,NE,53,0.0,-999.0,72,-99.99,,,0.00,weatherlink.com 1.10,2013-07-25 14:46:00,
2013-07-25 11:01:00,65.2,55.0,30.03,ENE,71,2.0,-999.0,69,-99.99,,,0.00,weatherlink.com 1.10,2013-07-25 15:01:00,
2013-07-25 11:31:00,66.7,55.0,30.04,East,82,1.0,-999.0,67,-99.99,,,0.00,weatherlink.com 1.10,2013-07-25 15:31:00,
2013-07-25 11:46:00,67.4,56.0,30.05,ENE,61,1.0,-999.0,66,-99.99,,,0.05,weatherlink.com 1.10,2013-07-25 15:46:00,
2013-07-25 12:16:00,69.7,58.0,30.05,NNE,30,0.0,-999.0,67,-99.99,,,0.05,weatherlink.com 1.10,2013-07-25 16:16:00,
2013-07-25 12:31:00,69.8,58.0,30.05,NE,43,1.0,-999.0,67,-99.99,,,0.05,weatherlink.com 1.10,2013-07-25 16:31:00,
2013-07-25 12:46:00,70.5,58.0,30.04,WSW,237,1.0,-999.0,64,-99.99,,,0.05,weatherlink.com 1.10,2013-07-25 16:46:00,
2013-07-25 13:01:00,72.0,59.0,30.04,NE,47,1.0,-999.0,63,-99.99,,,0.05,weatherlink.com 1.10,2013-07-25 17:01:00,
2013-07-25 13:16:00,73.9,58.0,30.03,ENE,63,0.0,-999.0,58,-99.99,,,0.05,weatherlink.com 1.10,2013-07-25 17:16:00,
2013-07-25 13:32:00,74.5,58.0,30.02,ENE,67,3.0,-999.0,57,-99.99,,,0.05,weatherlink.com 1.10,2013-07-25 17:32:00,
2013-07-25 13:46:00,75.4,61.0,30.02,NW,320,0.0,-999.0,62,-99.99,,,0.05,weatherlink.com 1.10,2013-07-25 17:46:00,
2013-07-25 14:01:00,76.7,59.0,30.02,NNE,22,3.0,-999.0,55,-99.99,,,0.05,weatherlink.com 1.10,2013-07-25 18:01:00,
2013-07-25 14:16:00,76.0,59.0,30.02,ENE,58,0.0,-999.0,56,-99.99,,,0.05,weatherlink.com 1.10,2013-07-25 18:16:00,
2013-07-25 14:31:00,76.7,60.0,30.02,North,350,4.0,-999.0,56,-99.99,,,0.05,weatherlink.com 1.10,2013-07-25 18:31:00,
2013-07-25 14:46:00,76.4,61.0,30.01,East,81,1.0,-999.0,59,-99.99,,,0.05,weatherlink.com 1.10,2013-07-25 18:46:00,
2013-07-25 15:01:00,77.3,59.0,30.01,ENE,75,0.0,-999.0,54,-99.99,,,0.05,weatherlink.com 1.10,2013-07-25 19:01:00,
2013-07-25 15:17:00,78.8,61.0,30.01,ENE,78,0.0,-999.0,54,-99.99,,,0.05,weatherlink.com 1.10,2013-07-25 19:17:00,
2013-07-25 15:32:00,80.3,60.0,30.00,NE,54,2.0,-999.0,51,-99.99,,,0.05,weatherlink.com 1.10,2013-07-25 19:32:00,
2013-07-25 15:47:00,78.9,60.0,30.00,NNE,26,0.0,-999.0,53,-99.99,,,0.05,weatherlink.com 1.10,2013-07-25 19:47:00,
2013-07-25 16:01:00,77.9,60.0,30.00,SE,126,0.0,-999.0,55,-99.99,,,0.05,weatherlink.com 1.10,2013-07-25 20:01:00,
2013-07-25 16:17:00,77.7,61.0,30.00,North,5,1.0,-999.0,57,-99.99,,,0.05,weatherlink.com 1.10,2013-07-25 20:17:00,
2013-07-25 16:32:00,77.3,59.0,29.99,North,355,0.0,-999.0,54,-99.99,,,0.05,weatherlink.com 1.10,2013-07-25 20:32:00,
2013-07-25 16:47:00,78.9,61.0,29.99,ENE,68,0.0,-999.0,54,-99.99,,,0.05,weatherlink.com 1.10,2013-07-25 20:47:00,
2013-07-25 17:02:00,77.5,60.0,29.99,ENE,59,0.0,-999.0,56,-99.99,,,0.05,weatherlink.com 1.10,2013-07-25 21:02:00,
2013-07-25 17:17:00,76.4,61.0,30.00,ESE,108,0.0,-999.0,59,-99.99,,,0.05,weatherlink.com 1.10,2013-07-25 21:17:00,
2013-07-25 17:32:00,77.3,62.0,29.99,ENE,69,0.0,-999.0,59,-99.99,,,0.05,weatherlink.com 1.10,2013-07-25 21:32:00,
2013-07-25 17:47:00,76.6,61.0,29.99,ENE,65,0.0,-999.0,58,-99.99,,,0.05,weatherlink.com 1.10,2013-07-25 21:47:00,
2013-07-25 18:02:00,76.0,61.0,29.99,ENE,65,0.0,-999.0,61,-99.99,,,0.05,weatherlink.com 1.10,2013-07-25 22:02:00,
2013-07-25 18:17:00,78.0,62.0,29.99,ENE,65,0.0,-999.0,58,-99.99,,,0.05,weatherlink.com 1.10,2013-07-25 22:17:00,
2013-07-25 18:32:00,77.1,61.0,30.00,ENE,61,0.0,-999.0,57,-99.99,,,0.05,weatherlink.com 1.10,2013-07-25 22:32:00,
2013-07-25 18:47:00,76.2,60.0,30.00,ENE,63,0.0,-999.0,58,-99.99,,,0.05,weatherlink.com 1.10,2013-07-25 22:47:00,
2013-07-25 19:02:00,75.8,62.0,30.01,ENE,69,0.0,-999.0,63,-99.99,,,0.05,weatherlink.com 1.10,2013-07-25 23:02:00,
2013-07-25 19:32:00,74.9,63.0,30.01,ENE,69,0.0,-999.0,67,-99.99,,,0.05,weatherlink.com 1.10,2013-07-25 23:32:00,
2013-07-25 19:47:00,74.4,64.0,30.02,ENE,69,0.0,-999.0,69,-99.99,,,0.05,weatherlink.com 1.10,2013-07-25 23:47:00,
2013-07-25 20:02:00,73.8,63.0,30.02,ENE,69,0.0,-999.0,69,-99.99,,,0.05,weatherlink.com 1.10,2013-07-26 00:02:00,
2013-07-25 20:17:00,72.9,62.0,30.02,ENE,69,0.0,-999.0,69,-99.99,,,0.05,weatherlink.com 1.10,2013-07-26 00:17:00,
2013-07-25 20:32:00,71.8,62.0,30.02,ENE,69,0.0,-999.0,72,-99.99,,,0.05,weatherlink.com 1.10,2013-07-26 00:32:00,
2013-07-25 20:47:00,70.8,62.0,30.02,ENE,69,0.0,-999.0,73,-99.99,,,0.05,weatherlink.com 1.10,2013-07-26 00:47:00,
2013-07-25 21:02:00,69.8,62.0,30.02,ENE,69,0.0,-999.0,75,-99.99,,,0.05,weatherlink.com 1.10,2013-07-26 01:02:00,
2013-07-25 21:17:00,68.6,61.0,30.03,ENE,69,0.0,-999.0,77,-99.99,,,0.05,weatherlink.com 1.10,2013-07-26 01:17:00,
2013-07-25 21:32:00,67.7,61.0,30.03,ENE,69,0.0,-999.0,79,-99.99,,,0.05,weatherlink.com 1.10,2013-07-26 01:32:00,
2013-07-25 21:47:00,66.8,60.0,30.03,ENE,69,0.0,-999.0,80,-99.99,,,0.05,weatherlink.com 1.10,2013-07-26 01:47:00,
2013-07-25 22:02:00,65.9,60.0,30.03,ENE,69,0.0,-999.0,82,-99.99,,,0.05,weatherlink.com 1.10,2013-07-26 02:02:00,
2013-07-25 22:17:00,65.4,60.0,30.03,ENE,69,0.0,-999.0,82,-99.99,,,0.05,weatherlink.com 1.10,2013-07-26 02:17:00,
2013-07-25 22:32:00,64.7,60.0,30.04,ENE,69,0.0,-999.0,84,-99.99,,,0.05,weatherlink.com 1.10,2013-07-26 02:32:00,
2013-07-25 22:47:00,64.1,60.0,30.04,ENE,69,0.0,-999.0,85,-99.99,,,0.05,weatherlink.com 1.10,2013-07-26 02:47:00,
2013-07-25 23:02:00,63.6,59.0,30.03,ENE,69,0.0,-999.0,85,-99.99,,,0.05,weatherlink.com 1.10,2013-07-26 03:02:00,
2013-07-25 23:17:00,63.1,59.0,30.03,ENE,69,0.0,-999.0,85,-99.99,,,0.05,weatherlink.com 1.10,2013-07-26 03:17:00,
2013-07-25 23:32:00,62.4,58.0,30.03,ENE,69,0.0,-999.0,86,-99.99,,,0.05,weatherlink.com 1.10,2013-07-26 03:32:00,
2013-07-25 23:47:00,61.5,57.0,30.03,ENE,69,0.0,-999.0,86,-99.99,,,0.05,weatherlink.com 1.10,2013-07-26 03:47:00,